This is the latest recevied weather packets stored in our database for station/object KD9JJA. If no packets are shown the sender has not sent any weather packets the latest 10 day(s).
| Time | Temp. | Humidity | Pressure | Rain* | Wind** | Luminosity | Snow |
|---|---|---|---|---|---|---|---|
| 1777853890 | 16.11° C | 59% | 1013.3 hPa | 0 mm | - | 0 W/m² | - |
| 1777853587 | 16.11° C | 57% | 1013.2 hPa | 0 mm | - | 3 W/m² | - |
| 1777853284 | 16.11° C | 56% | 1013.3 hPa | 0 mm | - | 3 W/m² | - |
| 1777852981 | 16.11° C | 56% | 1013.5 hPa | 0 mm | - | 2 W/m² | - |
| 1777852679 | 16.11° C | 59% | 1013 hPa | 0 mm | - | 1 W/m² | - |
| 1777852376 | 16.67° C | 55% | 1013.2 hPa | 0 mm | - | 3 W/m² | - |
| 1777852073 | 16.67° C | 55% | 1013.4 hPa | 0 mm | - | 6 W/m² | - |
| 1777851765 | 16.67° C | 55% | 1013.8 hPa | 0 mm | - | 6 W/m² | - |
| 1777851462 | 16.67° C | 54% | 1014 hPa | 0 mm | - | 12 W/m² | - |
| 1777851158 | 16.67° C | 54% | 1014.4 hPa | 0 mm | - | 7 W/m² | - |
| 1777850855 | 16.67° C | 58% | 1014.4 hPa | 0 mm | - | 8 W/m² | - |
| 1777850552 | 16.67° C | 53% | 1014.4 hPa | 0 mm | - | 7 W/m² | - |
| 1777850250 | 16.67° C | 59% | 1014.1 hPa | 0 mm | - | 10 W/m² | - |
| 1777849947 | 16.67° C | 54% | 1013.8 hPa | 0 mm | - | 17 W/m² | - |
| 1777849642 | 16.67° C | 53% | 1014 hPa | 0 mm | - | 21 W/m² | - |
| 1777849340 | 16.67° C | 54% | 1013.8 hPa | 0 mm | - | 12 W/m² | - |
| 1777849032 | 16.67° C | 52% | 1014 hPa | 0 mm | - | 22 W/m² | - |
| 1777848732 | 16.67° C | 58% | 1013.7 hPa | 0 mm | - | 28 W/m² | - |
| 1777848429 | 16.67° C | 54% | 1014.1 hPa | 0 mm | - | 24 W/m² | - |
| 1777848127 | 16.67° C | 53% | 1014.4 hPa | 0 mm | - | 26 W/m² | - |
| 1777847824 | 16.67° C | 54% | 1014.4 hPa | 0 mm | - | 19 W/m² | - |
| 1777847522 | 16.67° C | 51% | 1014.2 hPa | 0 mm | - | 29 W/m² | - |
| 1777847218 | 16.67° C | 52% | 1014.1 hPa | 0 mm | - | 37 W/m² | - |
| 1777846916 | 16.67° C | 52% | 1014.2 hPa | 0 mm | - | 41 W/m² | - |
| 1777846614 | 16.67° C | 52% | 1014.1 hPa | 0 mm | - | 23 W/m² | - |
* Rain latest hour (hover to see other rain measurements)
** Current wind speed in m/s (hover to see current wind gust speed)